DW7027 Weather Reports


Display with metric or nautical units.
time (UTC)temp
F
wind
direction
speed
MPH
gust
MPH
rain 1hr
in
rain 24hr
in
rain mn
in
humidity
%
barometer
mb
20260905133707 80 285 12.0 21.0 0.00 0.01 0.01 38 1022.8
20260905133206 80 284 9.0 21.0 0.00 0.01 0.01 40 1022.8
20260905132707 80 278 10.0 20.0 0.00 0.01 0.01 39 1022.6
20260905132207 80 288 11.0 18.0 0.00 0.01 0.01 39 1022.6
20260905131707 79 292 7.0 18.0 0.00 0.01 0.01 40 1022.7
20260905131207 79 293 11.0 21.0 0.00 0.01 0.01 40 1022.7
20260905125707 79 255 9.0 17.0 0.00 0.01 0.01 41 1022.7
20260905125207 79 275 6.0 18.0 0.00 0.01 0.01 41 1022.9
20260905124706 79 264 9.0 24.0 0.00 0.01 0.01 40 1022.8
20260905124206 79 285 14.0 25.0 0.00 0.01 0.01 42 1022.9
20260905123706 79 283 10.0 18.0 0.00 0.01 0.01 44 1022.9
20260905123208 79 290 11.0 20.0 0.00 0.01 0.01 44 1022.8
20260905122706 79 285 10.0 18.0 0.00 0.01 0.01 43 1022.7
20260905122207 79 270 7.0 20.0 0.00 0.01 0.01 45 1022.7
20260905121706 78 293 9.0 18.0 0.00 0.01 0.01 46 1023.0
20260905121208 78 273 9.0 21.0 0.00 0.01 0.01 46 1023.0
20260905120706 78 281 9.0 20.0 0.00 0.01 0.01 46 1022.8
20260905115706 77 290 6.0 18.0 0.00 0.01 0.01 48 1023.0
20260905115208 77 292 11.0 23.0 0.00 0.01 0.01 47 1023.1
20260905114706 77 281 10.0 18.0 0.00 0.01 0.01 48 1023.0
20260905114208 77 284 12.0 17.0 0.00 0.01 0.01 48 1023.3
20260905113706 76 287 6.0 16.0 0.00 0.01 0.01 49 1023.2
20260905113208 76 289 11.0 17.0 0.00 0.01 0.01 51 1023.4
20260905112706 75 285 7.0 15.0 0.00 0.01 0.01 51 1023.5
20260905112206 75 285 9.0 16.0 0.00 0.01 0.01 51 1023.4
20260905111706 75 280 12.0 17.0 0.00 0.01 0.01 52 1023.6
20260905111208 75 289 9.0 17.0 0.00 0.01 0.01 53 1023.6
20260905110707 74 307 7.0 18.0 0.00 0.01 0.01 54 1023.7
20260905105706 74 287 10.0 17.0 0.00 0.01 0.01 55 1023.6
20260905105206 74 270 10.0 17.0 0.00 0.01 0.01 56 1023.9
20260905104707 74 275 7.0 21.0 0.00 0.01 0.01 55 1023.7
20260905103708 73 285 11.0 18.0 0.00 0.01 0.01 58 1024.2
20260905103206 73 251 7.0 17.0 0.00 0.01 0.01 61 1024.2
20260905102707 72 284 8.0 18.0 0.00 0.01 0.01 62 1024.1
20260905102207 71 280 10.0 15.0 0.00 0.01 0.01 61 1024.2
20260905101706 71 288 8.0 17.0 0.00 0.01 0.01 61 1024.3
20260905101206 71 291 9.0 18.0 0.00 0.01 0.01 62 1024.2
20260905100706 70 279 5.0 14.0 0.00 0.01 0.01 65 1024.4
20260905095706 69 286 8.0 16.0 0.00 0.01 0.01 66 1024.5
20260905095206 68 267 8.0 17.0 0.00 0.01 0.01 67 1024.4
20260905094207 68 289 7.0 14.0 0.00 0.01 0.01 66 1024.5
20260905093706 68 289 10.0 15.0 0.00 0.01 0.01 66 1024.6
20260905092206 69 293 9.0 16.0 0.00 0.01 0.01 66 1024.8
20260905091707 69 290 5.0 10.0 0.00 0.01 0.01 68 1024.5
20260905090707 68 292 8.0 13.0 0.00 0.01 0.01 70 1024.9
20260905090206 67 272 5.0 10.0 0.00 0.01 0.01 74 1024.8
20260905085706 65 283 5.0 10.0 0.00 0.01 0.01 76 1024.8
20260905085208 64 283 5.0 10.0 0.00 0.01 0.01 76 1024.9
20260905084706 64 296 5.0 12.0 0.00 0.01 0.01 76 1025.0
20260905084206 64 294 5.0 9.0 0.00 0.01 0.01 77 1025.2
20260905083706 63 292 6.0 10.0 0.00 0.01 0.01 77 1025.3
20260905083206 63 293 3.0 7.0 0.00 0.01 0.01 78 1025.3
20260905082706 63 333 2.0 5.0 0.00 0.01 0.01 77 1025.2
20260905082206 63 299 3.0 6.0 0.00 0.01 0.01 77 1025.1
20260905081707 63 328 2.0 5.0 0.00 0.01 0.01 76 1024.7
20260905080706 63 356 3.0 6.0 0.01 0.01 0.01 75 1024.7
20260905080206 63 302 5.0 8.0 0.01 0.01 0.01 75 1024.5
20260905075706 63 283 2.0 8.0 0.01 0.01 0.01 75 1024.0
20260905075206 63 281 2.0 5.0 0.01 0.01 0.01 75 1023.8
20260905074706 63 275 3.0 6.0 0.01 0.01 0.01 75 1023.5
20260905074206 63 287 3.0 6.0 0.01 0.01 0.01 74 1023.5
20260905071206 64 262 4.0 8.0 0.01 0.01 0.01 72 1023.5
20260905070206 64 292 4.0 10.0 0.00 0.00 0.00 71 1023.5
20260905065208 64 278 6.0 14.0 0.00 0.00 0.00 72 1023.7
20260905064705 64 285 7.0 14.0 0.00 0.00 0.00 73 1023.7
20260905064206 64 278 5.0 10.0 0.00 0.00 0.00 72 1023.6
20260905063707 64 296 6.0 10.0 0.00 0.00 0.00 73 1023.5
20260905063205 64 282 6.0 10.0 0.00 0.00 0.00 72 1023.7
20260905062706 64 288 5.0 9.0 0.00 0.00 0.00 72 1023.5
20260905062206 65 282 6.0 10.0 0.00 0.00 0.00 72 1023.4
20260905061206 65 278 6.0 10.0 0.00 0.00 0.00 69 1023.3
20260905060706 65 292 5.0 12.0 0.00 0.00 0.00 70 1023.1
20260905055706 66 277 7.0 14.0 0.00 0.00 0.00 69 1023.0
20260905055206 66 293 6.0 10.0 0.00 0.00 0.00 68 1022.4
20260905054206 67 281 3.0 14.0 0.00 0.00 0.00 65 1022.2
20260905053706 67 350 6.0 10.0 0.00 0.00 0.00 65 1022.2
20260905053206 67 334 7.0 13.0 0.00 0.00 0.00 65 1022.2
20260905052706 67 343 5.0 10.0 0.00 0.00 0.00 65 1022.1
20260905051206 67 329 5.0 12.0 0.00 0.00 0.00 63 1022.1
20260905050706 67 340 5.0 10.0 0.00 0.00 0.00 62 1022.0
20260905050207 68 343 7.0 13.0 0.00 0.00 0.00 62 1021.6
20260905045206 68 329 4.0 8.0 0.00 0.00 0.00 59 1021.4
20260905044706 68 347 6.0 13.0 0.00 0.00 0.00 59 1021.5
20260905044206 68 324 7.0 21.0 0.00 0.00 0.00 59 1021.3
20260905043706 69 345 5.0 16.0 0.00 0.00 0.00 58 1020.9
20260905042706 69 313 9.0 15.0 0.00 0.00 0.00 57 1021.1
20260905042205 69 332 7.0 14.0 0.00 0.00 0.00 57 1020.7
20260905041205 69 333 6.0 14.0 0.00 0.00 0.00 57 1020.6
20260905040706 69 348 5.0 10.0 0.00 0.00 0.00 57 1020.2
20260905035706 69 336 6.0 13.0 0.00 0.00 0.00 57 1019.9
20260905034706 69 321 5.0 10.0 0.00 0.00 0.00 57 1019.7
20260905033705 69 339 6.0 12.0 0.00 0.00 0.00 56 1019.8
20260905033206 69 337 5.0 13.0 0.00 0.00 0.00 56 1019.6
20260905032706 70 336 5.0 10.0 0.00 0.00 0.00 56 1019.2
20260905031706 70 326 6.0 12.0 0.00 0.00 0.00 55 1018.7
20260905031205 70 352 7.0 15.0 0.00 0.00 0.00 55 1018.4
20260905025706 71 351 9.0 15.0 0.00 0.00 0.00 56 1018.5
20260905025206 71 331 5.0 15.0 0.00 0.00 0.00 56 1018.6
20260905024206 72 351 9.0 18.0 0.00 0.00 0.00 56 1018.5
20260905023706 72 348 5.0 16.0 0.00 0.00 0.00 56 1018.0
20260905023206 73 357 7.0 17.0 0.00 0.00 0.00 56 1018.3
20260905022206 74 357 10.0 15.0 0.00 0.00 0.00 56 1018.2
20260905021707 74 335 5.0 15.0 0.00 0.00 0.00 54 1018.1
20260905020705 77 8 12.0 24.0 0.00 0.00 0.00 52 1017.5
20260905015705 78 326 11.0 21.0 0.00 0.00 0.00 49 1017.0
20260905015208 78 295 8.0 14.0 0.00 0.00 0.00 50 1016.7
20260905013706 78 285 9.0 14.0 0.00 0.00 0.00 50 1016.6
20260905012706 78 279 7.0 12.0 0.00 0.00 0.00 50 1016.4
20260905012206 78 288 7.0 9.0 0.00 0.00 0.00 51 1016.4
20260905011706 78 282 5.0 12.0 0.00 0.00 0.00 50 1016.1
20260905011206 78 272 7.0 14.0 0.00 0.00 0.00 50 1016.2
20260905010708 79 278 6.0 10.0 0.00 0.00 0.00 49 1016.4
20260905005706 78 280 7.0 14.0 0.00 0.00 0.00 49 1016.1
20260905005206 78 278 6.0 10.0 0.00 0.00 0.00 49 1016.1
20260905004705 78 275 6.0 9.0 0.00 0.00 0.00 48 1016.0
20260905004206 78 274 6.0 8.0 0.00 0.00 0.00 48 1016.1
20260905003706 78 274 5.0 8.0 0.00 0.00 0.00 49 1016.1
20260905002706 78 274 5.0 7.0 0.00 0.00 0.00 49 1016.0
20260905002205 78 281 6.0 9.0 0.00 0.00 0.00 48 1015.8
20260905001705 78 274 4.0 8.0 0.00 0.00 0.00 48 1015.7
20260905000206 78 276 5.0 9.0 0.00 0.00 0.00 49 1015.8
20260904235706 78 284 6.0 9.0 0.00 0.00 0.00 49 1015.8
20260904234706 78 281 5.0 8.0 0.00 0.00 0.00 49 1015.7
20260904234205 77 274 5.0 8.0 0.00 0.00 0.00 49 1015.6
20260904233706 77 267 5.0 7.0 0.00 0.00 0.00 50 1015.8
20260904231707 75 261 3.0 6.0 0.00 0.00 0.00 53 1016.0
20260904231206 74 264 2.0 6.0 0.00 0.00 0.00 55 1016.0
20260904230706 73 247 3.0 6.0 0.00 0.00 0.00 57 1016.0
20260904230205 72 247 3.0 7.0 0.00 0.00 0.00 58 1015.8
20260904225706 71 237 4.0 6.0 0.00 0.00 0.00 61 1015.8
20260904225205 70 244 3.0 6.0 0.00 0.00 0.00 63 1015.6
20260904224206 69 237 2.0 3.0 0.00 0.00 0.00 65 1015.7
20260904223707 69 242 2.0 2.0 0.00 0.00 0.00 65 1015.7
20260904223206 69 257 1.0 2.0 0.00 0.00 0.00 65 1015.7
20260904222705 69 250 1.0 2.0 0.00 0.00 0.00 65 1015.6
20260904222205 68 227 2.0 2.0 0.00 0.00 0.00 65 1015.8
20260904221707 68 225 1.0 2.0 0.00 0.00 0.00 65 1015.8
20260904220706 68 53 0.0 1.0 0.00 0.00 0.00 65 1015.7
20260904220206 68 248 1.0 1.0 0.00 0.00 0.00 65 1015.8
20260904215705 68 249 0.0 1.0 0.00 0.00 0.00 65 1015.9
20260904215205 68 224 0.0 1.0 0.00 0.00 0.00 65 1015.6
20260904213707 68 280 0.0 1.0 0.00 0.00 0.00 64 1015.7
20260904212205 68 129 0.0 1.0 0.00 0.00 0.00 63 1015.7
20260904211707 69 256 0.0 2.0 0.00 0.00 0.00 62 1015.8
20260904211205 69 224 0.0 1.0 0.00 0.00 0.00 62 1015.9
20260904210705 69 282 0.0 2.0 0.00 0.00 0.00 61 1015.9
20260904210205 69 336 1.0 1.0 0.00 0.00 0.00 60 1015.9
20260904205707 70 328 1.0 1.0 0.00 0.00 0.00 59 1016.0
20260904205205 70 326 0.0 1.0 0.00 0.00 0.00 59 1015.9
20260904203705 71 282 1.0 2.0 0.00 0.00 0.00 57 1015.9
20260904202206 72 221 1.0 2.0 0.00 0.00 0.00 55 1016.0
20260904201705 73 231 1.0 2.0 0.00 0.00 0.00 54 1016.2
20260904200705 74 191 2.0 2.0 0.00 0.00 0.00 53 1016.2
20260904200205 74 200 1.0 2.0 0.00 0.00 0.00 53 1016.1
20260904195705 74 219 1.0 2.0 0.00 0.00 0.00 52 1016.1
20260904195206 75 208 1.0 2.0 0.00 0.00 0.00 51 1016.3
20260904194705 75 178 1.0 3.0 0.00 0.00 0.00 51 1016.3
20260904193206 76 259 2.0 3.0 0.00 0.00 0.00 50 1016.3
20260904192705 77 242 2.0 3.0 0.00 0.00 0.00 49 1016.5
20260904192205 77 246 3.0 5.0 0.00 0.00 0.00 49 1016.4
20260904191705 77 243 2.0 3.0 0.00 0.00 0.00 49 1016.3
20260904191207 77 237 3.0 6.0 0.00 0.00 0.00 48 1016.3
20260904190705 77 226 3.0 5.0 0.00 0.00 0.00 48 1016.3
20260904190205 78 228 3.0 5.0 0.00 0.00 0.00 47 1016.4
20260904185706 78 203 2.0 3.0 0.00 0.00 0.00 47 1016.1
20260904185207 78 247 2.0 3.0 0.00 0.00 0.00 46 1016.2
20260904184208 79 228 2.0 5.0 0.00 0.00 0.00 45 1016.3
20260904183705 79 218 3.0 5.0 0.00 0.00 0.00 45 1016.3
20260904183205 79 230 3.0 6.0 0.00 0.00 0.00 45 1016.1
20260904182705 80 211 3.0 5.0 0.00 0.00 0.00 44 1016.2
20260904182205 80 241 3.0 6.0 0.00 0.00 0.00 44 1015.9
20260904181706 80 222 4.0 8.0 0.00 0.00 0.00 44 1015.9
20260904180705 80 210 5.0 6.0 0.00 0.00 0.00 43 1015.9
20260904174206 82 241 3.0 5.0 0.00 0.00 0.00 41 1015.5
20260904173705 82 241 3.0 5.0 0.00 0.00 0.00 41 1015.7
20260904171704 84 230 3.0 7.0 0.00 0.00 0.00 40 1015.7
20260904171204 85 247 3.0 7.0 0.00 0.00 0.00 40 1015.7
20260904170705 85 241 4.0 7.0 0.00 0.00 0.00 39 1015.8
20260904170207 85 240 5.0 9.0 0.00 0.00 0.00 39 1015.7
20260904165705 86 236 5.0 12.0 0.00 0.00 0.00 38 1015.8
20260904165205 86 247 6.0 12.0 0.00 0.00 0.00 38 1015.9
20260904164705 87 238 7.0 13.0 0.00 0.00 0.00 38 1015.8
20260904163204 87 259 6.0 10.0 0.00 0.00 0.00 38 1016.0
20260904162704 87 243 5.0 14.0 0.00 0.00 0.00 38 1016.2
20260904162205 87 238 10.0 16.0 0.00 0.00 0.00 37 1016.1
20260904160704 88 244 6.0 16.0 0.00 0.00 0.00 37 1016.4
20260904160206 88 263 9.0 16.0 0.00 0.00 0.00 37 1016.2
20260904155705 88 241 6.0 15.0 0.00 0.00 0.00 37 1016.3
20260904155204 88 226 7.0 16.0 0.00 0.00 0.00 37 1016.4
20260904154706 89 234 8.0 15.0 0.00 0.00 0.00 37 1016.4
20260904154204 89 241 8.0 16.0 0.00 0.00 0.00 36 1016.6
20260904153205 90 254 7.0 13.0 0.00 0.00 0.00 36 1016.5
20260904152205 90 276 9.0 14.0 0.00 0.00 0.00 36 1016.7
20260904151705 90 243 9.0 15.0 0.00 0.00 0.00 35 1016.8
20260904151205 90 264 9.0 16.0 0.00 0.00 0.00 35 1016.9
20260904150205 90 277 8.0 16.0 0.00 0.00 0.00 36 1017.0
20260904145705 90 245 7.0 16.0 0.00 0.00 0.00 36 1017.0
20260904145205 90 288 9.0 17.0 0.00 0.00 0.00 36 1017.0
20260904144704 90 275 12.0 17.0 0.00 0.00 0.00 36 1017.1
20260904144207 90 254 6.0 13.0 0.00 0.00 0.00 37 1017.2
20260904143205 90 236 10.0 16.0 0.00 0.00 0.00 37 1017.6
20260904142706 90 259 7.0 14.0 0.00 0.00 0.00 36 1017.6
20260904142205 90 281 9.0 18.0 0.00 0.00 0.00 37 1017.6
20260904141705 90 268 8.0 16.0 0.00 0.00 0.00 36 1017.7
20260904141207 90 237 6.0 12.0 0.00 0.00 0.00 37 1017.8
20260904140706 90 268 4.0 17.0 0.00 0.00 0.00 37 1017.8
20260904140205 90 272 10.0 18.0 0.00 0.00 0.00 36 1017.9
20260904135707 90 236 7.0 13.0 0.00 0.00 0.00 37 1018.0
20260904134705 90 271 9.0 16.0 0.00 0.00 0.00 37 1018.2
20260904134205 89 286 8.0 14.0 0.00 0.00 0.00 38 1018.3